Regional Weather Roundup
Issued by NWS Upton, NY

Current Version | Previous Version | Text Only | Print | Product List | Glossary On
Versions: 1 2 3 4 5 6 7 8 9 10 11 12 13 14 15 16 17 18 19 20 21 22 23 24 25 26 27
000
ASUS41 KOKX 042002
RWROKX

REGIONAL WEATHER ROUNDUP
NATIONAL WEATHER SERVICE NEW YORK NY
400 PM EDT WED MAY 04 2016

NOTE: "FAIR" INDICATES FEW OR NO CLOUDS BELOW 12,000 FEET WITH NO
SIGNIFICANT WEATHER AND/OR OBSTRUCTIONS TO VISIBILITY.

NYZ071-072-176-178-NJZ106-104-042100-
NEW YORK CITY METRO AREA


CITY           SKY/WX    TMP DP  RH WIND       PRES   REMARKS
CENTRAL PARK   CLOUDY    51  43  74 E13G21    29.76S
LAGUARDIA APRT LGT RAIN  51  47  86 E13       29.74S
KENNEDY INTL   LGT RAIN  50  47  89 NE14      29.74S
NEWARK/LIBERTY LGT RAIN  50  46  86 NE12      29.73F
BRNX BOT. GARD   N/A     48  45  87 E5        29.74F
TETERBORO      LGT RAIN  50  43  77 NE5       29.73S
$$

NYZ177-179-078>081-042100-
LONG ISLAND NEW YORK

CITY           SKY/WX    TMP DP  RH WIND       PRES   REMARKS
FARMINGDALE    LGT RAIN  49  45  86 NE10      29.72F
ISLIP          TSTM      49  44  83 NE13G18   29.72F
SHIRLEY        LGT RAIN  49  45  86 VRB6      29.73F
RIVERHEAD        N/A     50  46  87 E9        29.73S
WESTHAMPTON    CLOUDY    47  44  90 NE16G26   29.74S
EAST HAMPTON   CLOUDY    49  42  76 E10G25    29.73S
MONTAUK POINT    N/A     48  44  86 NE14G23   29.74F
$$

NYZ052-065-067-042100-
HUDSON VALLEY

CITY           SKY/WX    TMP DP  RH WIND       PRES   REMARKS
WHITE PLAINS   LGT RAIN  49  47  93 E6        29.72F FOG
NEWBURGH       NOT AVBL
MONTGOMERY     LGT RAIN  50  48  93 NE10      29.75S FOG
POUGHKEEPSIE   CLOUDY    51  47  86 N6        29.76R FOG
ALBANY         LGT RAIN  50  46  86 CALM      29.79F FOG
$$

NJZ001-105-106-008-010-013-015-019>022-104-042100-
NEW JERSEY

CITY           SKY/WX    TMP DP  RH WIND       PRES   REMARKS
NEWARK/LIBERTY LGT RAIN  50  46  86 NE12      29.73F
TETERBORO      LGT RAIN  50  43  77 NE5       29.73S
CALDWELL       LGT RAIN  50  44  80 E7        29.74S
MORRISTOWN     CLOUDY    50  46  87 E9G16     29.74S
SOMERVILLE     CLOUDY    52  45  77 E8        29.71S
SUSSEX         CLOUDY    50  47  89 NE9       29.73F FOG
ANDOVER          N/A     50  46  86 VRB5      29.72F
TRENTON        CLOUDY    51  47  86 E10       29.69F
MILLVILLE      CLOUDY    52  48  86 NE12      29.67F
ATLANTIC CITY  LGT RAIN  50  47  89 NE14      29.68R
WRIGHTSTOWN    NOT AVBL
TOMS RIVER     CLOUDY    48  45  87 NE10      29.71R
BELMAR         LGT RAIN  47  45  93 NE10G22   29.71F
$$

PAZ047>061-062-071-042100-
EASTERN PENNSYLVANIA

CITY           SKY/WX    TMP DP  RH WIND       PRES   REMARKS
PHILADELPHIA   CLOUDY    53  46  77 NE10G20   29.70F
ALLENTOWN      CLOUDY    52  48  86 NE7       29.71S
SCRANTON       CLOUDY    51  48  89 E3        29.70F
$$

CTZ002-004>006-009-010-012-RIZ004-006-007-MAZ004-011-015-042100-
SOUTHERN NEW ENGLAND
 IN CT

CITY           SKY/WX    TMP DP  RH WIND       PRES   REMARKS
BRADLEY INTL   CLOUDY    51  41  68 NE10      29.78S
HARTFORD       CLOUDY    54  42  64 NE10G17   29.77F
DANBURY        LGT RAIN  50  43  77 NE7       29.76F
WTRBRY/OXFORD  CLOUDY    48  39  71 E9G16     29.76S
BRIDGEPORT     LGT RAIN  50  47  89 E9        29.74F
MERIDEN        CLOUDY    53  42  66 NE7       29.76S
NEW HAVEN      CLOUDY    52  43  71 NE12      29.74S
CHESTER        CLOUDY    50  43  76 NE10G17   29.74F
GROTON         LGT RAIN  51  49  92 NE14      29.73S FOG
WILLIMANTIC    CLOUDY    51  43  74 NE9       29.78R

 IN RI

CITY           SKY/WX    TMP DP  RH WIND       PRES   REMARKS
PROVIDENCE     CLOUDY    49  39  68 NE17      29.79F
BLOCK ISLAND   LGT RAIN  46  44  93 NE18G26   29.75F
WESTERLY       LGT RAIN  50  40  68 NE13G24   29.73F

 IN MA

CITY           SKY/WX    TMP DP  RH WIND       PRES   REMARKS
BOSTON         CLOUDY    47  41  80 NE15      29.84F
WORCESTER      LGT RAIN  44  41  89 NE13G24   29.78F
WESTFIELD      LGT RAIN  48  43  82 E7        29.79S
PROVINCETOWN   LGT RAIN  45  42  89 NE16G22   29.81F
NANTUCKET      LGT RAIN  46  44  93 NE23G32   29.74F FOG
$$

ANZ330-335-338-340-345-350-353-355-042100-
COASTAL MARINE OBSERVATIONS


STATION/POSITION TIME  SKY/WX   TEMP    WIND        PRES    VSBY  WAVE
                                AIR SEA DIR/SP/G                  HT/PER
                 (UTC)          (F)     (DEG/KT/KT) (MB)    (MI)  (FT/S)
NY HARB ENTRANCE 1850            48 50   60/ 21/ 25 1006.0          6/ 6
20S FIRE ISLAND  1850            47 48   60/ 21/ 27 1005.0          7/ 6
GREAT SOUTH BAY  1900            50 55   40/ 14/ 17   N/A
23 SSW MONTAUK P 1950            46 47   70/ 21/ 27 1005.1          7/ 6
15 E BARNEGAT LI 1922               50                N/A           6/ 6
HUDSON CANYON    1850            49 48              1003.5          6/ 7
KINGS POINT      1900            49 54              1006.5
EXECUTION ROCKS  NOT AVBL
CENTRAL LI SOUND 1900            48      80/ 14/ 17   N/A           2/ 5
EASTERN LI SOUND 1900            50 48   70/ 16/ 19   N/A
ROBBINS REEF     1900            49      50/ 12/ 13 1006.2
$$


>>>>>>>>>>>>>>>>>>>>>>>>>>>> KEY <<<<<<<<<<<<<<<<<<<<<<<<<<<
>                                                          <
>     SKY/WX - SKY CONDITION/PRESENT WEATHER               <
>     TMP    - TEMPERATURE IN FAHRENHEIT                   <
>     DP     - DEWPOINT IN FAHRENHEIT                      <
>     RH     - RELATIVE HUMIDITY IN PERCENT                <
>     WIND   - DIRECTION AND SPEED IN MPH                  <
>     PRES   - MEAN SEA LEVEL PRESSURE IN INCHES OF HG     <
>     WCI    - WIND CHILL INDEX                            <
>     VSB    - VISIBILITY IN MILES                         <
>     HX     - HEAT INDEX                                  <
>     TC     - TEMPERATURE IN CELSIUS                      <
>     VRB    - VARIABLE WIND DIRECTION                     <
>                                                          <
>>>>>>>>>>>>>>>>>>>>>>>>>>>> KEY <<<<<<<<<<<<<<<<<<<<<<<<<<<






USA.gov is the U.S. government's official web portal to all federal, state and local government web resources and services.